TimeEST,TemperatureF,Dew PointF,Humidity,Sea Level PressureIn,VisibilityMPH,Wind Direction,Wind SpeedMPH,Gust SpeedMPH,PrecipitationIn,Events,Conditions,WindDirDegrees,DateUTC
12:50 AM,33.8,32.0,93,29.75,3.0,West,6.9,-,N/A,,Overcast,260,2013-02-14 05:50:00
12:54 AM,33.1,32.0,96,29.77,3.0,West,8.1,-,N/A,,Overcast,260,2013-02-14 05:54:00
1:25 AM,32.0,32.0,100,29.77,2.5,West,6.9,-,N/A,,Overcast,260,2013-02-14 06:25:00
1:51 AM,32.0,32.0,100,29.78,3.0,West,4.6,-,N/A,,Overcast,280,2013-02-14 06:51:00
1:54 AM,32.0,32.0,100,29.80,2.5,WNW,4.6,-,N/A,,Overcast,290,2013-02-14 06:54:00
2:10 AM,32.0,30.2,93,29.79,3.0,West,8.1,-,N/A,,Overcast,260,2013-02-14 07:10:00
2:54 AM,32.0,30.9,96,29.83,3.0,West,8.1,-,N/A,,Overcast,260,2013-02-14 07:54:00
3:54 AM,30.0,28.9,96,29.85,2.5,West,5.8,-,N/A,,Overcast,270,2013-02-14 08:54:00
4:33 AM,28.4,28.4,100,29.85,1.5,NW,3.5,-,N/A,,Overcast,310,2013-02-14 09:33:00
4:54 AM,28.9,28.9,100,29.88,0.8,Calm,Calm,-,N/A,,Overcast,0,2013-02-14 09:54:00
5:29 AM,28.4,28.4,100,29.87,1.0,NW,3.5,-,N/A,,Overcast,310,2013-02-14 10:29:00
5:54 AM,28.9,28.0,96,29.90,1.0,Calm,Calm,-,N/A,,Overcast,0,2013-02-14 10:54:00
6:19 AM,28.4,28.4,100,29.90,2.5,WNW,4.6,-,N/A,,Overcast,290,2013-02-14 11:19:00
6:29 AM,28.4,28.4,100,29.90,4.0,West,9.2,-,N/A,,Overcast,270,2013-02-14 11:29:00
6:51 AM,28.4,26.6,93,29.91,2.5,West,8.1,-,N/A,,Mostly Cloudy,280,2013-02-14 11:51:00
6:54 AM,28.9,27.0,92,29.94,2.5,West,8.1,-,N/A,,Mostly Cloudy,280,2013-02-14 11:54:00
6:58 AM,28.4,26.6,93,29.92,5.0,WNW,6.9,-,N/A,,Mostly Cloudy,290,2013-02-14 11:58:00
7:37 AM,28.4,26.6,93,29.94,4.0,West,8.1,-,N/A,,Mostly Cloudy,280,2013-02-14 12:37:00
7:54 AM,30.0,27.0,88,29.98,5.0,West,10.4,-,N/A,,Overcast,260,2013-02-14 12:54:00
8:54 AM,30.0,26.1,85,29.99,7.0,West,8.1,-,N/A,,Overcast,270,2013-02-14 13:54:00
9:54 AM,32.0,24.1,73,29.98,10.0,West,10.4,-,N/A,,Overcast,260,2013-02-14 14:54:00
10:54 AM,34.0,26.1,73,29.98,10.0,Variable,4.6,-,N/A,,Mostly Cloudy,0,2013-02-14 15:54:00
11:47 AM,35.6,26.6,70,29.95,10.0,Calm,Calm,-,N/A,,Scattered Clouds,0,2013-02-14 16:47:00
11:54 AM,37.0,26.1,65,29.96,10.0,Calm,Calm,-,N/A,,Scattered Clouds,0,2013-02-14 16:54:00
12:54 PM,39.0,25.0,57,29.96,10.0,Calm,Calm,-,N/A,,Scattered Clouds,0,2013-02-14 17:54:00
1:54 PM,37.9,26.1,62,29.94,10.0,Calm,Calm,-,N/A,,Partly Cloudy,0,2013-02-14 18:54:00
2:54 PM,39.9,27.0,60,29.94,10.0,ESE,4.6,-,N/A,,Overcast,120,2013-02-14 19:54:00
3:54 PM,39.9,26.1,58,29.93,10.0,Calm,Calm,-,N/A,,Overcast,0,2013-02-14 20:54:00
4:54 PM,39.0,28.0,65,29.93,9.0,East,4.6,-,N/A,,Mostly Cloudy,90,2013-02-14 21:54:00
5:54 PM,37.0,28.0,70,29.93,9.0,East,3.5,-,N/A,,Overcast,100,2013-02-14 22:54:00
6:54 PM,37.0,27.0,67,29.93,9.0,NE,4.6,-,N/A,,Overcast,50,2013-02-14 23:54:00
7:54 PM,39.0,27.0,62,29.94,9.0,Calm,Calm,-,N/A,,Overcast,0,2013-02-15 00:54:00
8:54 PM,35.1,28.0,76,29.95,8.0,Calm,Calm,-,N/A,,Overcast,0,2013-02-15 01:54:00
9:54 PM,35.1,28.0,76,29.94,8.0,ESE,5.8,-,N/A,,Overcast,120,2013-02-15 02:54:00
10:54 PM,37.0,28.0,70,29.92,8.0,ENE,8.1,-,N/A,,Overcast,60,2013-02-15 03:54:00
11:54 PM,37.0,27.0,67,29.91,8.0,ENE,11.5,-,N/A,,Mostly Cloudy,70,2013-02-15 04:54:00